Regional Weather Roundup
Issued by NWS

Home | Current Version | Previous Version | Text Only | Print | Product List | Glossary Off
Versions: 1 2 3 4 5 6 7 8 9 10 11 12 13 14 15 16 17 18 19 20 21 22 23 24 25 26 27 28 29 30 31 32 33 34 35 36 37 38 39 40 41 42 43 44 45 46 47 48 49 50

000
ASUS43 KBIS 240720
RWRND

NORTH DAKOTA REGIONAL WEATHER ROUNDUP
NATIONAL WEATHER SERVICE BISMARCK ND
100 AM CST MON NOV 24 2014

NOTE: "FAIR" INDICATES FEW OR NO CLOUDS BELOW 12,000 FEET WITH NO
SIGNIFICANT WEATHER AND/OR OBSTRUCTIONS TO VISIBILITY.


NDZ001>003-009>011-017-240800-
NORTHWEST NORTH DAKOTA

CITY           SKY/WX    TMP DP  RH WIND       PRES   REMARKS
WILLISTON      CLEAR      9   5  84 NE5       29.82S WCI   1
MINOT          CLEAR      8   2  76 NW15      29.76F WCI  -9
MINOT AFB      CLEAR      7   4  84 NW15      29.77S WCI -10
$$

NDZ018>021-031>035-040>046-240800-
SOUTHWEST NORTH DAKOTA

CITY           SKY/WX    TMP DP  RH WIND       PRES   REMARKS
BISMARCK       CLOUDY    16  11  80 NW14G24   29.74R WCI   2
DICKINSON      CLEAR     13  10  88 NW7       29.74S WCI   3
GARRISON         N/A     10   6  84 NW14      29.75S WCI  -6
HETTINGER ARPT CLOUDY    18  14  84 NW15      29.74F WCI   4
$$

NDZ004>008-012>016-024-026-027-054-240800-
NORTHEAST NORTH DAKOTA

CITY           SKY/WX    TMP DP  RH WIND       PRES   REMARKS
GRAND FORKS    LGT SNOW  15  10  80 N24G30    29.60S WCI  -4
GRND FRKS AFB  CLOUDY    13   9  83 N17G25    29.61S WCI  -4
DEVILS LAKE    CLOUDY    12   1  62 NW20G25   29.64S WCI  -6
$$

NDZ022-023-025-028>030-036>039-047>053-240800-
SOUTHEAST NORTH DAKOTA

CITY           SKY/WX    TMP DP  RH WIND       PRES   REMARKS
FARGO          LGT SNOW  17  12  80 NW21G32   29.58F VSB 3/4 WCI   0
JAMESTOWN      FLURRIES  14   8  77 NW22G30   29.62S WCI  -4
$$



USA.gov is the U.S. government's official web portal to all federal, state and local government web resources and services.